CZ-6A DEB, 54341

Orbit data source: Space-Track

CZ-6A DEB, 54341 is space debris in SSO originally from a launch on Fri, 11 Nov 2022 UTC launched from the Taiyaun Space Center, China (TSC). Debris objects in space refer to the collection of defunct objects orbiting the Earth. Examples of debris include non-operational satellites, rocket bodies, and fragments generated from explosions, collisions, or faulty payload assembly.

Loading next visibility...
Identifier
54341, 2022-151CL
Orbit
SSO
Country
Flag of CNCN / PRC
Related business
Manufacturer
SAST
Mission
Spacecraft
Bus & Motor
Unknown
Mass
Unknown
Launch date (UTC)
2022-11-11 (4 years ago)
Launch vehicle
Unknown
Launch site
Taiyaun Space Center, China (TSC)
Object type
Payload
Rocket body
Debris
Shape & HBR
Unknown shape, 0.2 m
Radar Cross Section
Medium (>0.1 m² and <1 m²)

Expand to show TLE details & history
Last TLE update: 2 days ago

TLE from 2 days ago
0 CZ-6A DEB
1 54341U 22151CL  26171.30521196  .00000746  00000-0  34265-3 0  9992
2 54341  98.7663 190.8552 0045584 336.2722  23.6354 14.23711729186363
Epoch: 2026-06-20T07:19Z
TLE epoch observation values (Epoch: 2026-06-20T07:19:30.313Z)
Latitude
-0.00002°
Longitude
172.45716°
Altitude
785.734 km
Speed
7.476 km/s
True Right ascension
12h 43m 25s
True Declination
0° 00' 00"
Sunlit
Object was in daylight at epoch
Visualization orbit readout
Latitude
Unknown
Longitude
Unknown
Altitude
Unknown
Speed
Unknown
Apparent Right ascension
Unknown
Apparent Declination
Unknown
Sunlit
N/A
Visualization observer readout
Local Sidereal Time
21:28:06
Azimuth
Unknown
Elevation
Unknown
Doppler factor
Unknown
Orbital elements
Apogee altitude
842.75 km
Perigee altitude
777.217 km
Semi-major axis
7,188.121 km
Eccentricity
0.00456
Inclination
98.7663°
RAAN
190.8552°
Arg. of periapsis
336.2722°
True anomaly
23.84592°
Mean anomaly
23.6354°
Eccentric anomaly
23.74055°
Mean motion
3.56139 °/min
Orbital period
101.08 mins
BSTAR
0.00034265
Loading maneuver chart data...
Computing Atmospheric mass density...
Loading historical data...
Loading historical data...
Loading historical data...
Loading historical data...
Loading historical data...
Loading historical data...
Loading historical data...

Documentation

Showing up to 5 results
|